KKS-1 (KISEKI)

Last updated on Sat Feb 08 2025 00:03:03 GMT+0000 (Coordinated Universal Time)

1 33499U 09002H 25037.85375844 .00003405 00000+0 44789-3 0 9996 2 33499 98.1265 308.2804 0009765 92.8946 267.3384 14.80845828862828
UTC large
Height (km)
Speed (km/s)
/
Latitude / Longitude
Inclination (degrees)
Orbital Period (minutes)
Azimuth
Elevation
Range (km)
Doppler Factor

Next 0 passes for location: London (51.5072 / 0.1276)

Sorry there are no passes over London.